Погода в Жиганске

Погода в Жиганске : погода сейчас, прогноз погоды и архив. Всё, что Вы хотите узнать о погоде в Жиганске!

Хотите узнать прогноз погоды в Жиганске? Тогда Вам сюда: Погода в Жиганске

Поиск расширенной информации на нашем сайте:

Полезная информация: стоматология в москве

Другие новости

Новости СМИ2

Главная страница сайта

Новости сайта

03.07.2017

Напоминаем, что на нашем специализированном сайте Метеоцентр.Азия вы можете получить высокодетализированные автоматические прогнозы погоды по пунктам России, СНГ и мира в авиационном формате (включающие направление и скорость ветра, видимость, явления погоды, количество и форму облачности, нижнюю и верхнюю границу облачности).

Рекомендуем: Портал о строительстве http://geos-inform.com

Погода в Жиганске - сегодня

Время (UTC), дата Ветер
(°,м/с) 
Видим.   Явления Облачность Т
(°С)
Тd
(°С)
f(%) Тe
(°С)
Pmin
(гПа)
dP
(гПа)
Po
(мм)
O2
(г/м3)
Тmin Tmax R s Состояние
почвы
03 24.07.17 030 (СВ) 5-10{12}  20000 м    6/6 600 м 
[Sc]
+11.8 +4 59 +11  1010.9  0.3  750  289           
06 24.07.17 040 (СВ) 5{13}  20000 м    8/0 верхняя 
[Ci sp]
+12.2 +4 57 +11  1011.1  0.2  750  289           
09 24.07.17 040 (СВ) 20000 м    4/0 верхняя 
[Ci fib]
+14.2 +4.5 52 +14  1010.3  -0.7  749  286           
12 24.07.17 340 (С) 20000 м    1/0 верхняя 
[Ci sp]
+13.2 +2.2 47 +14  1010.1  -0.3  749  288    +14.2       
15 24.07.17 350 (С) 20000 м    3/0 верхняя 
[Ci sp]
+6.6 +4 83 +6  1010.3  749  294           
18 24.07.17 350 (С) 20000 м    3/0 верхняя 
[Ci sp]
+3.3 +1.8 90 +3  1010.1  -0.4  749  298           
21 24.07.17 350 (С) 20000 м    ясно 
+6.9 +4.1 82 +8  1009.8  -0.1  749  294           
00 25.07.17 320 (СЗ) 20000 м    1/0 верхняя 
[Ci sp]
+12.9 +4.6 57 +13  1009.9  0.3  749  288  +2.9        сухая 
03 25.07.17 060 (СВ) 20000 м    4/0 верхняя 
[Ci fib]
+15.3 +5.7 53 +16  1008.9  -0.9  748  285           
06 25.07.17 140 (ЮВ) 20000 м    6/0 верхняя 
[Ci fib]
+18 +6 45 +19  1007.1  -1.6  747  282           
09 25.07.17 150 (ЮВ) 20000 м    9/0 верхняя 
[Ci fib]
+18.9 +7.3 47 +20  1006.4  -0.7  747  280           
12 25.07.17 170 (Ю) 20000 м    4/0 верхняя 
[Ci fib]
+17.2 +7.2 52 +18  1006  -0.4  746  282    +18.9       
15 25.07.17 200 (Ю) 20000 м    3/0 средняя, верхняя 
[Ac trans|Ci fib]
+12.2 +6.8 70 +13  1005.5  -0.8  746  287           
18 25.07.17 300 (СЗ) 20000 м    3/0 средняя 
[Ac trans]
+9.7 +5.3 74 +10  1004.9  -0.6  745  289           
21 25.07.17 180 (Ю) 20000 м  в посл. час ливневой дождь  10/3 600 м кучево-дожд., средняя 
[Cb cap|Ac As]
+10.5 +7.8 83 +12  1003.9  -1  745  288           
00 26.07.17 190 (Ю) 20000 м  в посл. час ливневой дождь  10/4 600 м кучево-дожд., средняя 
[Cb cap|Ac und]
+12.4 +10.3 87 +16  1002.9  -0.9  744  285  +9.2      влажная 
03 26.07.17 150 (ЮВ) 20000 м    10/6 870 м средняя, верхняя 
[Sc|Ac trans|Ci fib]
+17.4 +11.3 67 +21  1002.7  744  280           
06 26.07.17 360 (С) 20000 м    10/10 660 м 
[Sc]
+16.5 +11.9 74 +21  1003.6  0.8  745  281           
09 26.07.17 040 (СВ) 20000 м    10/6 1000 м верхняя 
[Cu Sc|Ci fib]
+18.1 +12.2 68 +23  1003.4  -0.1  744  279           
12 26.07.17 030 (СВ) 20000 м    10/5 1000 м кучево-дожд., средняя 
[Cb cap|Ac und]
+15.4 +9.2 66 +16  1003.7  0.2  745  282    +18.1       
15 26.07.17 020 (С) 10 км  слаб. ливневой дождь  10/10 400 м кучево-дожд. 
[Cb cap]
+12.7 +9.6 81 +14  1004.1  0.2  745  285           
18 26.07.17 010 (С) 20000 м  слаб. ливневой дождь  10/10 240 м кучево-дожд. 
[Cb cap]
+9.8 +9.4 97 +10  1003.3  -0.8  744  288           
21 26.07.17 350 (С) 20000 м  в посл. час дождь{ливн. осадки}  10/5 1000 м средняя 
[Sc|Ac und]
+8 +6 87 +7  1004.3  0.9  745  291           
00 27.07.17 350 (С) 5-10{10}  20000 м  {ливн. осадки, дождь}  10/6 720 м средняя, верхняя 
[Sc|Ac trans|Ci sp]
+10 +4.4 68 +9  1004.9  0.7  745  289  +7.5    13    влажная 
03 27.07.17 340 (С) 4{10}  20000 м    10/10 1140 м 
[Sc]
+11 +3.5 60 +10  1005.6  0.7  746  288           
Время (UTC), дата Ветер
(°,м/с) 
Видим.   Явления Облачность Т
(°С)
Тd
(°С)
f(%) Тe
(°С)
Pmin
(гПа)
dP
(гПа)
Po
(мм)
O2
(г/м3)
Тmin Tmax R s Состояние
почвы

Для получения пояснительной информации подведите курсор к названию столбца.

ПОГОДА в Жиганске - архив

Всё, что Вы хотите узнать о погоде в Жиганске - удобно и подробно!

Выберите нужную дату (начиная с 1 января 2015* года) и нажмите кнопку "Найти".
Будут отображены архивные сводки погоды по пункту Жиганск, начиная с указанной даты.


Отображать данные в формате CSV (для использования в таблицах Excel)


Внимание! Наш архив погоды предназначен исключительно для личного некоммерческого использования в познавательных целях. Если Вам необходимы официальные справки о состоянии погоды (для производственных, юридических, коммерческих и т.п. целей), обращайтесь в органы Росгидромета.

*Примечание: данная дата относится к архиву по метеостанциям СССР (Россия, СНГ, Балтия).
Архив по метеостанциям Зарубежной Европы и Азии (кроме Китая) хранится 10 дней, по другим регионам земного шара (Китай, Африка, Америка, Австралия, Океания) - 1 день.

Жиганск - район местоположения метеостанции


Название, широта, долгота, высота метеостанции:
Жиганск 66.8°ш. 123.4°д. 92 м над ур. моря [Российская Федерация]

Дополнительная информация

В oтличие oт бoльшинства пoгoдных сайтoв мы публикуем пoдрoбную метеoинфoрмацию в детальнoм прoфессиoнальнoм фoрмате.

Характеристики температуры и влажнoсти вoздуха измеряются на высoте 2 м в тени вдали oт зданий и деревьев.
Скoрoсть ветра измеряется на высoте 10 м (на урoвне рoста челoвека скoрoсть ветра ниже в 1.5-2 раза). Если метеoстанция нахoдится в гoрoде или в лесу, тo скoрoсть ветра занижена на 2-4 м/с пo сравнению с oткрытым местoм. Скoрoсть ветра над акватoриями крупных рек и oзёр, а также на вершинах хoлмoв на 2-5 м/с выше, чем в oбычных услoвиях.
Атмoсфернoе давление в разных тoчках местнoсти мoжет значительнo oтличаться oт давления на метеoстанции, в зависимoсти oт услoвий рельефа (при пoдъёме на 10 м давление пoнижается примернo на 1 мм рт.ст.).